Regional Weather Roundup
Issued by NWS

Home | Current Version | Previous Version | Text Only | Print | Product List | Glossary On
Versions: 1 2 3 4 5 6 7 8 9 10 11 12 13 14 15 16 17 18 19 20 21 22 23 24 25 26 27 28 29 30 31 32 33 34 35 36 37 38 39 40 41 42 43 44 45 46 47 48 49 50
000
ASUS44 KFWD 130015
RWRTX
NORTH TEXAS HOURLY WEATHER ROUNDUP
NATIONAL WEATHER SERVICE FORT WORTH TX
600 PM CST TUE DEC 12 2017

NOTE: "FAIR" INDICATES FEW OR NO CLOUDS BELOW 12,000 FEET WITH NO
SIGNIFICANT WEATHER AND/OR OBSTRUCTIONS TO VISIBILITY.

TXZ118-119-130100-
DALLAS/FORT WORTH METROPLEX

CITY           SKY/WX    TMP DP  RH WIND       PRES   REMARKS
DFW AIRPORT    CLEAR     53  27  36 NW9       30.25F
6HR MIN TEMP:  53; 6HR MAX TEMP:  58;

DALLAS LOVE    CLEAR     51  26  37 NW7       30.26F
6HR MIN TEMP:  51; 6HR MAX TEMP:  57;

FTW MEACHAM    CLEAR     50  28  42 NW7       30.26F
6HR MIN TEMP:  50; 6HR MAX TEMP:  58;

DAL-EXECUTIVE  PTCLDY    50  26  39 NW6       30.25F
6HR MIN TEMP:  50; 6HR MAX TEMP:  57;

FTW-ALLIANCE   CLEAR     49  26  41 W3        30.26F
6HR MIN TEMP:  49; 6HR MAX TEMP:  57;

FTW-NAS-JRB    CLEAR     49  28  44 NW7       30.27F
6HR MIN TEMP:  49; 6HR MAX TEMP:  57;

FTW-SPINKS     CLEAR     48  27  43 NW3       30.28F
ARLINGTON      CLEAR     48  27  44 NW5       30.26F
6HR MIN TEMP:  48; 6HR MAX TEMP:  57;

ADDISON        CLEAR     50  27  40 NW12      30.26F
MESQUITE       CLEAR     48  21  34 NW3       30.27F
LANCASTER      CLEAR     49  22  34 CALM      30.27F
6HR MIN TEMP:  49; 6HR MAX TEMP:  56;

$$

TXZ091>094-102>105-117-120-121-131>134-130100-
NORTH CENTRAL TEXAS

CITY           SKY/WX    TMP DP  RH WIND       PRES   REMARKS
SHRMAN/DENISON CLEAR     46  24  42 NW3       30.27S
6HR MIN TEMP:  46; 6HR MAX TEMP:  53;

GAINESVILLE    CLEAR     44  23  42 NW5       30.28
BOWIE          PTCLDY    46  24  43 NW5       30.26F
6HR MIN TEMP:  46; 6HR MAX TEMP:  53;

BRIDGEPORT     CLEAR     49  28  43 W3        30.29F
6HR MIN TEMP:  49; 6HR MAX TEMP:  55;

DECATUR        PTCLDY    47  24  39 W5        30.26S
6HR MIN TEMP:  47; 6HR MAX TEMP:  55;

DENTON         CLEAR     49  26  41 NW5       30.26F
6HR MIN TEMP:  49; 6HR MAX TEMP:  55;

MCKINNEY       CLEAR     49  24  37 NW6       30.26F
6HR MIN TEMP:  47; 6HR MAX TEMP:  55;

BONHAM         CLEAR     45  20  36 NW6       30.25F
6HR MIN TEMP:  45; 6HR MAX TEMP:  54;

GREENVILLE     CLEAR     50  23  34 NW3       30.26S
ROCKWALL       CLEAR     50  27  40 CALM      30.26F
6HR MIN TEMP:  50; 6HR MAX TEMP:  55;

TERRELL        CLEAR     47  23  38 W3        30.26F
6HR MIN TEMP:  47; 6HR MAX TEMP:  56;

WAXAHACHIE     PTCLDY    48  28  45 CALM      30.27F
6HR MIN TEMP:  48; 6HR MAX TEMP:  56;

CLEBURNE       PTCLDY    50  27  40 N5        30.28S
GRANBURY       CLEAR     51  27  40 W3        30.28F
6HR MIN TEMP:  51; 6HR MAX TEMP:  59;

$$

TXZ083>090-098>101-113>116-127>130-139>142-154-155-130100-
WESTERN NORTH TEXAS

CITY           SKY/WX    TMP DP  RH WIND       PRES   REMARKS
WICHITA FALLS  PTCLDY    50  25  37 W5        30.26F
6HR MIN TEMP:  49; 6HR MAX TEMP:  55;

WF-KICKAPOO    PTCLDY    52  26  36 W6        30.29F
6HR MIN TEMP:  49; 6HR MAX TEMP:  55;

VERNON         CLEAR     49  17  28 S7        30.25F
6HR MIN TEMP:  35; 6HR MAX TEMP:  73;

ABILENE        CLEAR     50  21  32 CALM      30.29F
6HR MIN TEMP:  48; 6HR MAX TEMP:  56;

ABILENE-DYESS  CLEAR     45  22  40 CALM      30.28F
6HR MIN TEMP:  45; 6HR MAX TEMP:  56;

GRAHAM           N/A     48  26  42 CALM      30.26F
6HR MIN TEMP:  48; 6HR MAX TEMP:  56;

BRECKENRIDGE   CLEAR     50  25  37 W5        30.28F
6HR MIN TEMP:  50; 6HR MAX TEMP:  57;

CISCO          CLEAR     48  23  37 CALM      30.29F
EASTLAND       CLEAR     40  22  48 N3        30.28F
6HR MIN TEMP:  39; 6HR MAX TEMP:  55;

RANGER         CLEAR     47  26  43 CALM      30.28F
6HR MIN TEMP:  44; 6HR MAX TEMP:  55;

MINERAL WELLS  CLEAR     47  23  38 NW6       30.26F
6HR MIN TEMP:  47; 6HR MAX TEMP:  57;

STEPHENVILLE   PTCLDY    51  24  34 CALM      30.30S
6HR MIN TEMP:  51; 6HR MAX TEMP:  57;

COMANCHE       CLEAR     50  25  38 CALM      30.29S
6HR MIN TEMP:  50; 6HR MAX TEMP:  58;

BROWNWOOD      CLEAR     48  19  32 W3        30.29S
COLEMAN        CLEAR     51  21  30 NW5       30.29F
6HR MIN TEMP:  51; 6HR MAX TEMP:  58;

$$

TXZ143>147-156>162-174-175-130100-
CENTRAL TEXAS

CITY           SKY/WX    TMP DP  RH WIND       PRES   REMARKS
WACO           PTCLDY    51  28  41 NW5       30.28S
6HR MIN TEMP:  51; 6HR MAX TEMP:  59;

WACO-TSTC      CLEAR     50  28  43 NW10      30.28S
WACO-MCGREGOR  PTCLDY    52  29  41 NW6       30.28F
6HR MIN TEMP:  52; 6HR MAX TEMP:  57;

HILLSBORO      PTCLDY    50  27  40 CALM      30.26F
6HR MIN TEMP:  48; 6HR MAX TEMP:  58;

CORSICANA      CLEAR     47  24  40 NW3       30.28F
6HR MIN TEMP:  47; 6HR MAX TEMP:  57;

MEXIA          PTCLDY    50  21  32 CALM      30.27S
6HR MIN TEMP:  50; 6HR MAX TEMP:  57;

HEARNE         PTCLDY    49  26  40 CALM      30.28S
6HR MIN TEMP:  49; 6HR MAX TEMP:  59;

CAMERON        PTCLDY    51  25  37 CALM      30.27F
6HR MIN TEMP:  51; 6HR MAX TEMP:  60;

TEMPLE         CLEAR     50  29  44 NW6       30.28F
6HR MIN TEMP:  50; 6HR MAX TEMP:  59;

KILLEEN        CLEAR     49  28  44 NW5       30.26F
6HR MIN TEMP:  49; 6HR MAX TEMP:  60;

KILLEEN-SKYLRK CLEAR     51  29  42 N3        30.27F
6HR MIN TEMP:  51; 6HR MAX TEMP:  60;

FORT HOOD      CLEAR     49  28  43 N7        30.24F
6HR MIN TEMP:  49; 6HR MAX TEMP:  60;

GATESVILLE     CLEAR     52  27  37 CALM      30.29F
HAMILTON       CLEAR     47  26  42 NW7       30.29S
6HR MIN TEMP:  47; 6HR MAX TEMP:  59;

LAMPASAS       CLEAR     50  27  39 N6        30.27S
6HR MIN TEMP:  50; 6HR MAX TEMP:  59;

$$

TXZ095>097-106>112-122>126-135>138-148>153-164>167-130100-
EAST TEXAS

CITY           SKY/WX    TMP DP  RH WIND       PRES   REMARKS
PARIS          CLEAR     46  14  27 NW3       30.25S
6HR MIN TEMP:  43; 6HR MAX TEMP:  53;

SULPHUR SPRNGS CLEAR     47  22  37 NW3       30.27F
6HR MIN TEMP:  47; 6HR MAX TEMP:  55;

MOUNT PLEASANT CLEAR     48  20  32 W3        30.26R
6HR MIN TEMP:  48; 6HR MAX TEMP:  55;

GILMER         CLEAR     47  21  35 CALM      30.24S
6HR MIN TEMP:  47; 6HR MAX TEMP:  54;

MINEOLA        CLEAR     46  21  36 CALM      30.25S
TYLER          CLEAR     48  19  31 W5        30.24F
6HR MIN TEMP:  48; 6HR MAX TEMP:  57;

LONGVIEW       CLEAR     46  25  43 NW7       30.23S
6HR MIN TEMP:  46; 6HR MAX TEMP:  58;

MARSHALL       CLEAR     45  23  41 NW5       30.26R
6HR MIN TEMP:  45; 6HR MAX TEMP:  55;

ATHENS         CLEAR     45  21  39 CALM      30.25F
PALESTINE      CLEAR     50  22  33 NW5       30.27F
JACKSONVILLE   CLEAR     49  22  35 NW6       30.26S
HENDERSON      CLEAR     46  24  42 CALM      30.25S
6HR MIN TEMP:  46; 6HR MAX TEMP:  57;

CENTER         CLEAR     47  22  37 CALM      30.23S
6HR MIN TEMP:  47; 6HR MAX TEMP:  58;

NACOGDOCHES    CLEAR     46  28  49 CALM      30.24S
6HR MIN TEMP:  46; 6HR MAX TEMP:  60;

LUFKIN         CLEAR     50  27  40 CALM      30.23S
6HR MIN TEMP:  49; 6HR MAX TEMP:  61;

$$

SUPPLEMENTAL OBSERVATIONS (NWS FORT WORTH AREA)

CITY           SKY/WX    TMP DP  RH WIND       PRES   REMARKS
DENISON DAM      N/A     52  32  46 NW8         N/A



USA.gov is the U.S. government's official web portal to all federal, state and local government web resources and services.